Naujoji Akmenė

Lithuania     56˚19′19″N   22˚52′39″E
temp.,
°C
wind,
m/s
gust,
m/s
humid.,
%
clouds,
%
prec.,
mm/h
press.,
hPa
HPBL,
m
2 december, wed
wed223:00−3˚sse369197 0.0 1030221
02:00−3˚sse369276 0.0 1030233
05:00−4˚sse359454 0.0 1030179
08:00−4˚sse369238 0.0 1030220
11:00−3˚sse468627 0.0 1031290
14:00−2˚sse368116 0.0 1029373
17:00−4˚se48920 0.0 1027305
20:00−4˚se48942 0.0 1026338
3 december, thu
thu323:00−4˚se489272 0.0 1025341
02:00−4˚se489559 0.0 1023305
05:00−4˚se489681 0.0 1021299
08:00−3˚se589188 0.0 1019420
11:00−3˚sse6990100 0.0 1019550
14:00−2˚sse6984100 0.1 1018642
17:00−2˚sse61281100 0.0 1016651
20:00−2˚se71583100 0.0 1015603
4 december, fri
fri423:00−1˚sse71586100 0.1 1014691
02:00sse71586100 0.1 1013720
05:00+1˚sse71686100 0.0 1011680
08:00+1˚sse81687100 0.1 1011650
11:00+2˚sse81687100 0.0 1011655
14:00+2˚sse91786100 0.0 1011704
17:00+3˚sse81687100 0.0 1010658
20:00+2˚sse81688100 0.0 1011666
5 december, sat
sat523:00+3˚sse81687100 0.0 1011668
02:00+4˚sse8179088 0.0 1012659
05:00+5˚sse81689100 0.0 1012672
08:00+5˚sse81789100 0.0 1013644
11:00+5˚sse81688100 0.0 1015671
14:00+6˚sse81685100 0.0 1015683
17:00+6˚sse8168679 0.0 1016699
20:00+6˚se8158589 0.0 1017766
6 december, sun
sun623:00+6˚se71585100 0.0 1017760
02:00+6˚se81584100 0.0 1018704
05:00+5˚se7148494 0.0 1018738
08:00+5˚se8158397 0.0 1019706
11:00+4˚se8148099 0.0 1020760
14:00+4˚se81379100 0.0 1020892
17:00+3˚se81379100 0.0 1020873
20:00+1˚se8147990 0.0 1021750